{"data":{"norad_id":66719,"epoch":"2026-09-19T23:58:06.968928Z","epoch_age_seconds":65276,"freshness":"FRESH","line1":"1 66719U 25276BF  26262.99869177  .00004385  00000+0  20156-3 0  9991","line2":"2 66719  97.4156 335.0817 0005191  50.0318 310.1373 15.20873959 44828","mean_motion":15.20873959,"eccentricity":0.0005191,"inclination_deg":97.4156,"raan_deg":335.0817,"arg_perigee_deg":50.0318,"mean_anomaly_deg":310.1373,"bstar":0.00020156,"rev_number":4482,"period_min":94.682402277887,"perigee_km":499.63103946762,"apogee_km":506.77524680422,"semimajor_km":6881.3401431359,"source":"CELESTRAK","updated_at":"2026-09-20T09:00:34.750691Z"}}